Location: Azul
(36.7830°S, 59.8500°W)
Time: 00:13:37
(UTC-03:00)

CUBEBUG 2 - Pass Details

Date: 30 October 2021
Orbit: 584 x 697 km, 97.7° (Epoch: 30 November)

Event Time Altitude Azimuth Distance (km) Brightness Sun altitude
Exits shadow 02:39:38 15° 91° (E) 1,684 ? -32.4°
Maximum altitude 02:41:00 17° 114° (ESE) 1,587 ? -32.2°
Drops below altitude 10° 02:43:49 10° 154° (SSE) 2,026 ? -31.9°
Sets 02:46:43 0° 173° (S) 2,968 ? -31.6°
